+ View the NASA Portal
+ Center for Near-Earth Object Studies
IMPORTANT:
The SSD Announcement email list is now available. Major changes are coming in the near future, including possible hostname and/or URL changes. To be notified of such changes, subscribe to this email list.
Please visit
this page
for more details.
Don't show this message again
JPL Small-Body Database Browser
Search:
[
help
]
357267 (2002 QP152)
Classification:
Main-belt Asteroid
SPK-ID:
2357267
[
Ephemeris
|
Orbit Diagram
|
Orbital Elements
|
Mission Design
|
Physical Parameters
|
Discovery Circumstances
|
Close-Approach Data
]
[ show orbit diagram ]
Orbital Elements at Epoch 2458600.5 (2019-Apr-27.0) TDB
Reference:
JPL 12
(heliocentric ecliptic J2000)
Element
Value
Uncertainty (1-sigma)
Units
e
.1499914669008757
6.7679e-08
a
2.545758194916687
2.7727e-08
au
q
2.163916188886208
1.7504e-07
au
i
13.53164658417657
8.1984e-06
deg
node
132.1594438941391
1.8303e-05
deg
peri
122.9404513072683
3.0198e-05
deg
M
97.15357470256394
2.5118e-05
deg
t
p
2458200.112568085415
(2018-Mar-22.61256809)
0.00010116
TDB
period
1483.625033155332
4.06
2.4238e-05
6.636e-08
d
yr
n
.2426489119251123
3.9642e-09
deg/d
Q
2.927600200947166
3.1886e-08
au
Orbit Determination Parameters
# obs. used (total)
146
data-arc span
6293 days (17.23 yr)
first obs. used
2002-08-11
last obs. used
2019-11-03
planetary ephem.
DE431
SB-pert. ephem.
SB431-N16
condition code
0
norm. resid. RMS
.58699
source
ORB
producer
Otto Matic
solution date
2019-Dec-04 23:21:10
Additional Information
Earth MOID
= 1.17976 au
Jupiter MOID
= 2.26361 au
T_jup
= 3.389
[ show covariance matrix ]
[
Ephemeris
|
Orbit Diagram
|
Orbital Elements
|
Mission Design
|
Physical Parameters
|
Discovery Circumstances
|
Close-Approach Data
]
Physical Parameter Table
Parameter
Symbol
Value
Units
Sigma
Reference
Notes
absolute magnitude
H
17.0
n/a
MPO455579
357267 (2002 QP152)
Discovered 2009-Feb-01 by Spacewatch at Kitt Peak
Reference:
20130327/Numbers.arc
Last Updated:
2013-03-29
[ show close-approach data ]
Alternate Designations
2002 QP152
= 2013 CP14
[
Ephemeris
|
Orbit Diagram
|
Orbital Elements
|
Mission Design
|
Physical Parameters
|
Discovery Circumstances
|
Close-Approach Data
]
2019-Dec-10 16:42 UT
(server date/time)
Site Manager:
Ryan S. Park
Webmaster
:
Alan B. Chamberlin